Probability
94 96 96 96 98 99 100 100 100 100 100 100 100 100 100 100 97 89 83 84 88 91 93 93 90 84 78 69 61 52 37 26 18 11 5 2 7 16 22 17 9 2 0
93 95 96 97 99 100 100 100 100 100 100 100 100 100 100 99 95 89 86 86 87 89 91 93 90 85 78 68 58 50 39 26 20 15 9 5 7 11 12 12 10 4 2
95 94 95 98 99 100 100 100 100 100 100 100 100 100 100 99 95 92 90 89 88 88 91 93 91 87 80 68 54 44 35 26 20 17 12 7 5 4 3 5 8 10 9
95 94 93 96 98 99 99 100 99 99 100 100 100 100 100 99 98 97 96 94 92 91 92 93 92 89 82 69 52 40 34 26 19 14 10 5 2 0 0 1 6 12 12
86 87 88 91 94 96 97 98 98 98 99 100 100 100 100 100 100 100 99 98 97 95 91 90 91 89 82 67 50 39 33 25 18 12 7 3 0 0 0 0 3 5 6
67 70 75 80 83 87 91 95 96 97 99 100 100 100 100 100 100 100 99 97 96 93 87 81 81 82 76 60 44 33 25 20 16 11 5 1 0 1 1 0 0 0 1
42 47 57 66 71 77 85 91 93 96 98 99 99 100 100 100 99 98 95 90 84 77 69 61 60 60 55 43 29 20 15 12 10 6 3 1 0 1 1 0 0 0 0
26 32 44 57 67 76 83 88 91 93 93 92 93 96 97 96 94 90 82 71 58 48 38 31 30 29 26 19 12 8 6 5 4 2 1 0 0 1 1 0 0 0 0
17 23 36 51 65 76 83 87 87 85 81 77 78 81 82 81 77 69 56 41 28 19 12 8 7 7 6 4 2 1 1 1 1 0 0 0 0 0 0 1 2 1 0
9 14 23 35 48 61 70 73 70 66 60 56 54 52 51 50 46 37 26 15 8 4 1 0 0 0 0 0 0 0 0 0 0 0 0 0 0 0 0 2 3 1 0
2 4 9 15 22 31 39 43 42 39 35 30 27 23 20 18 16 12 7 4 2 1 0 0 0 0 0 0 0 0 0 0 0 0 0 0 0 0 0 1 1 1 0
0 0 2 4 5 8 13 15 16 15 13 10 8 7 6 5 4 2 1 1 0 0 0 0 0 0 0 0 0 0 0 0 0 0 0 0 0 0 0 0 0 0 0
0 0 0 0 0 1 2 3 3 4 3 2 2 2 2 3 1 0 0 0 0 0 0 0 0 0 0 0 0 0 0 0 0 0 0 0 0 0 0 0 0 0 0
0 0 0 0 0 0 0 0 0 1 1 0 0 0 0 1 0 0 0 0 0 0 0 0 0 0 0 0 0 0 0 0 0 0 0 0 0 0 0 0 0 0 0
0 0 0 0 0 0 0 0 0 0 0 0 0 0 0 0 0 0 0 0 0 0 0 0 0 0 0 0 0 0 0 0 0 0 0 0 0 0 0 0 0 0 0
0 0 0 0 0 0 0 0 0 0 0 0 0 0 0 0 0 0 0 0 0 0 0 0 0 0 0 0 0 0 0 0 0 0 0 0 0 0 0 0 0 0 0
0 0 0 0 0 0 0 0 0 0 0 0 0 0 0 0 0 0 0 0 0 0 0 0 0 0 0 0 0 0 0 0 0 0 0 0 0 0 0 0 0 0 0
0 0 0 0 0 0 0 0 0 0 0 0 0 0 0 0 0 0 0 0 0 0 0 0 0 0 0 0 0 0 0 0 0 0 0 0 0 0 0 0 0 0 0
0 0 0 0 0 0 0 0 0 0 0 0 0 0 0 0 0 0 0 0 0 0 0 0 0 0 0 0 0 0 0 0 0 0 0 0 0 0 0 0 0 0 0
0 0 0 0 0 0 0 0 0 0 0 0 0 0 0 0 0 0 0 0 0 0 0 0 0 0 0 0 0 0 0 0 0 0 0 0 0 0 0 0 0 0 0
0 0 0 0 0 0 0 0 0 0 0 0 0 0 0 0 0 0 0 0 0 0 0 0 0 0 0 0 0 0 0 0 0 0 0 0 0 0 0 0 0 0 0
0 0 0 0 0 0 0 0 0 0 0 0 0 0 0 0 0 0 0 0 0 0 0 0 0 0 0 0 0 0 0 0 0 0 0 0 0 0 0 0 0 0 0
0 0 0 0 0 0 0 0 0 0 0 0 0 0 0 0 0 0 0 0 0 0 0 0 0 0 0 0 0 0 0 0 0 0 0 0 0 0 0 0 0 0 0
0 0 0 0 0 0 0 0 0 0 0 0 0 0 0 0 0 0 0 0 0 0 0 0 0 0 0 0 0 0 0 0 0 0 0 0 0 0 0 0 0 0 0
0 0 0 0 0 0 0 0 0 0 0 0 0 0 0 0 0 0 0 0 0 0 0 0 0 0 0 0 0 0 0 0 0 0 0 0 0 0 0 0 0 0 0
0 0 0 0 0 0 0 0 0 0 0 0 0 0 0 0 0 0 0 0 0 0 0 0 0 0 0 0 0 0 0 0 0 0 0 0 0 0 0 0 0 0 0
Wind_Speed
9 7 6 7 10 10 9 7 7 6 5 4 5 6 5 4 3 2 3 3 3 3 3 3 3 3 2 2 2 2 3 3 3 3 5 7 8 6 4 4 4 3 4
6 5 3 2 2 5 6 6 6 5 5 4 3 3 3 3 4 4 4 5 5 4 5 4 3 3 2 3 2 2 2 3 3 2 3 4 5 2 4 5 5 5 3
6 4 1 2 3 3 2 2 2 2 3 4 3 3 2 3 4 5 5 6 7 7 6 5 4 4 4 3 3 3 4 4 3 3 3 3 3 3 4 5 5 4 3
7 7 6 7 7 6 6 5 5 3 1 1 2 4 4 5 5 4 5 6 7 8 7 6 6 5 4 4 4 4 3 4 4 3 3 5 4 3 4 3 3 5 5
7 8 7 7 7 7 7 6 6 6 4 2 1 2 2 3 3 3 4 4 5 6 7 7 6 5 4 4 4 2 2 2 3 4 4 5 4 5 4 4 3 3 4
6 6 6 5 5 5 4 5 5 4 3 3 3 2 3 3 4 4 4 3 3 3 5 5 5 4 4 4 3 2 2 3 4 5 5 5 4 4 4 5 5 4 4
6 5 5 4 3 3 2 3 4 3 3 3 3 3 3 3 3 4 4 4 3 2 3 3 2 2 1 1 1 0 2 3 5 5 5 5 6 5 5 5 5 4 3
6 5 4 3 2 2 2 3 3 3 3 4 4 4 5 4 4 5 4 4 3 3 4 4 4 3 3 3 2 1 2 4 5 7 7 5 6 5 5 5 5 4 3
6 5 5 4 4 3 3 4 4 5 4 4 3 5 5 5 5 5 4 4 4 3 4 4 3 4 4 3 2 1 3 4 4 6 6 6 5 5 5 4 3 3 3
7 6 5 5 4 4 4 4 5 5 4 4 4 5 5 5 4 5 5 5 4 3 3 2 2 2 1 1 2 2 4 4 4 4 5 5 4 4 4 3 3 3 3
6 6 6 5 4 4 4 4 4 4 4 4 4 4 4 4 5 4 4 3 3 3 2 1 1 1 2 2 2 3 5 4 4 4 4 4 5 4 4 4 3 3 3
4 5 6 5 5 4 4 3 3 3 3 3 3 4 4 4 4 5 4 4 4 4 4 3 3 2 2 2 3 4 4 3 3 3 4 5 5 6 4 4 4 4 4
4 5 5 4 4 3 2 2 2 2 2 2 3 3 4 4 4 4 4 4 4 4 5 4 4 4 4 4 4 3 4 4 4 4 5 6 6 6 6 5 4 4 5
4 4 4 4 3 2 2 1 2 2 1 1 2 3 3 3 3 4 4 3 3 3 4 4 4 5 6 8 8 6 4 4 4 5 5 6 6 6 7 6 6 5 5
3 3 3 2 2 2 2 2 1 1 1 2 3 3 2 2 2 3 3 2 3 5 4 4 5 6 6 8 9 7 6 5 5 5 4 5 5 4 4 5 6 7 5
3 2 1 1 2 2 2 2 2 2 2 3 3 3 2 3 3 2 2 2 3 3 3 4 6 7 7 9 11 10 5 5 5 5 4 4 6 6 5 3 3 6 6
2 2 1 1 1 2 2 2 0 2 2 3 3 3 4 5 5 5 5 5 4 4 4 4 5 6 6 10 12 14 5 5 5 5 6 7 8 8 7 5 1 3 8
4 3 2 2 2 3 3 2 2 3 3 3 4 4 4 4 4 4 5 5 4 4 4 4 5 5 6 9 12 14 3 5 6 6 6 6 7 10 9 5 5 5 6
4 3 3 3 3 4 3 3 4 4 4 4 4 4 4 4 3 3 3 3 3 4 4 4 5 5 5 10 11 12 2 3 5 6 7 7 7 12 14 8 7 6 3
3 3 3 4 3 3 3 3 4 4 5 4 4 3 3 3 2 2 2 1 1 2 3 5 5 6 6 10 13 13 4 2 2 4 5 10 9 11 13 7 7 7 7
5 5 5 3 2 2 2 4 5 6 5 4 4 3 2 2 2 2 1 0 0 1 3 4 5 6 6 8 12 13 6 6 4 3 4 5 10 11 11 8 4 5 7
6 5 4 2 2 2 4 5 6 5 5 4 3 3 1 2 3 2 2 1 1 1 2 3 4 4 4 7 8 10 10 8 6 5 5 4 9 10 10 7 9 12 9
3 3 3 4 3 4 4 6 6 5 5 4 3 2 2 2 2 2 2 2 2 2 2 3 3 3 3 4 6 6 7 8 4 3 3 5 7 8 6 6 10 9 5
3 3 3 4 4 4 5 6 6 5 5 4 4 3 2 2 2 2 2 3 3 3 3 4 3 3 4 4 5 5 5 5 5 5 5 6 4 3 4 6 5 4 4
4 4 4 4 5 5 6 6 6 5 5 4 4 3 3 3 3 3 3 3 4 3 3 3 3 3 3 1 2 3 4 5 5 7 6 4 3 2 2 2 3 4 5
5 4 5 5 7 7 6 6 6 5 4 4 5 4 4 4 4 5 4 2 2 4 3 2 2 3 3 3 3 4 6 8 7 5 5 5 3 3 2 2 3 3 3
Wind_Direction
158 176 197 186 174 173 173 179 189 192 192 192 196 200 206 208 218 219 202 188 190 190 196 218 212 217 227 228 241 268 286 270 264 286 295 290 261 220 205 212 236 228 214
140 157 184 190 162 157 166 180 198 201 200 205 211 214 209 210 215 225 222 220 222 226 233 225 220 217 228 244 243 237 249 267 259 249 287 290 298 284 226 201 200 217 222
130 130 109 32 42 72 131 178 179 201 218 220 214 226 216 224 224 227 230 230 231 232 237 239 232 226 223 229 235 236 239 254 265 238 239 267 280 294 261 216 206 181 204
79 71 61 47 45 49 63 69 70 68 57 208 208 226 227 235 241 239 240 234 232 236 231 228 229 229 228 227 236 236 230 243 262 272 242 239 257 273 303 281 232 190 208
82 71 60 55 51 53 59 67 71 66 55 49 91 262 267 280 290 282 264 252 241 236 237 230 230 228 226 226 229 246 246 249 258 264 269 268 256 242 248 273 282 250 227
92 81 73 69 62 61 69 79 84 81 74 62 58 36 9 349 336 331 316 299 277 256 251 248 241 234 224 222 214 220 260 265 273 272 262 258 252 247 239 252 267 263 251
109 98 87 78 77 85 95 110 113 111 102 85 63 47 25 355 2 357 351 350 341 338 326 302 286 264 247 226 157 80 305 291 285 278 270 263 257 256 258 258 268 282 286
124 117 110 99 87 97 113 119 111 99 80 74 63 46 30 25 31 27 17 22 20 24 27 28 21 25 32 40 45 23 300 285 280 280 276 269 266 262 258 260 273 285 282
124 115 101 88 76 70 66 78 93 90 81 72 77 65 49 45 43 41 35 35 30 30 38 40 33 31 29 19 6 318 282 276 271 274 279 269 267 266 268 270 272 265 274
131 117 99 84 71 68 69 75 85 82 73 61 33 72 67 66 60 54 53 46 37 35 36 31 17 5 354 320 307 298 281 271 267 267 273 282 286 294 292 287 278 261 250
133 123 111 97 81 73 73 73 79 80 72 71 64 55 66 80 79 62 52 44 29 12 16 3 312 289 276 277 278 274 272 272 278 292 306 317 316 314 316 311 291 269 243
127 115 104 98 87 71 66 68 68 66 65 72 82 74 63 59 70 67 48 39 27 9 7 349 331 315 306 287 280 288 303 308 321 335 344 342 345 349 337 322 304 289 263
109 94 82 70 67 62 57 67 81 71 50 62 104 96 85 72 63 62 47 33 24 19 11 359 356 353 353 354 343 324 322 336 -0 15 18 17 15 7 351 336 334 313 297
106 92 91 80 60 41 10 26 72 66 62 56 81 92 86 77 69 64 57 37 22 26 13 3 5 8 30 21 7 357 8 20 35 39 39 36 29 12 350 356 356 338 322
120 93 86 78 42 23 352 3 59 62 45 77 76 75 74 77 78 71 58 40 18 33 20 15 26 29 49 23 5 354 34 41 45 42 53 62 40 22 4 9 358 352 345
153 137 82 48 34 355 338 353 37 56 63 77 77 60 47 47 45 57 59 49 43 33 28 39 50 41 37 10 11 9 24 43 39 31 28 83 43 8 356 341 9 15 7
190 191 191 290 320 312 316 298 162 118 92 84 76 60 50 50 37 31 38 30 24 24 27 48 73 72 36 13 10 5 6 48 42 37 32 36 32 13 350 339 295 13 22
211 215 230 247 266 282 273 234 197 156 134 109 81 60 55 59 50 45 40 24 18 17 16 43 71 79 49 18 8 352 10 65 57 43 37 48 30 10 354 9 45 61 38
202 208 225 247 257 269 258 212 191 168 140 110 92 73 61 62 52 48 40 24 16 15 10 41 59 66 46 19 10 356 327 100 92 76 48 39 33 10 8 18 23 30 39
186 216 241 246 249 255 237 204 181 145 126 112 99 83 67 61 53 57 48 26 9 17 31 47 44 47 44 21 17 5 2 37 104 116 92 55 34 17 15 15 17 11 348
202 216 236 242 242 230 182 161 132 126 126 124 115 97 72 62 64 54 52 42 46 61 63 63 59 53 41 33 27 21 18 1 13 53 70 46 18 11 4 1 9 341 313
211 209 215 202 175 168 151 142 134 132 135 138 133 121 82 29 63 61 63 59 73 99 82 83 83 73 55 37 28 28 26 15 20 29 33 24 5 354 342 343 341 340 343
206 206 197 176 163 161 155 148 143 145 144 143 140 130 109 69 55 60 73 78 76 79 78 83 89 85 68 43 22 19 19 17 17 16 9 352 354 347 343 349 338 336 341
193 198 191 173 160 155 153 149 149 154 161 158 148 140 132 116 90 58 60 73 76 80 77 77 81 79 61 34 12 357 1 360 3 351 327 313 304 312 328 339 343 347 353
183 179 181 173 156 157 158 157 159 166 171 165 159 156 155 140 130 103 73 80 79 86 93 82 80 79 73 33 345 340 345 345 355 334 312 305 311 313 323 338 353 360 360
173 177 173 165 158 159 159 161 166 176 177 175 175 177 175 172 166 154 144 73 111 145 135 139 133 134 158 194 254 285 296 302 317 322 297 294 291 294 305 316 331 345 354